{"data":{"norad_id":42747,"epoch":"2026-05-25T03:58:15.953088Z","epoch_age_seconds":63870,"freshness":"FRESH","line1":"1 42747U 17031A   26145.16546242  .00000123  00000+0  00000+0 0  9998","line2":"2 42747   0.0757  94.2958 0006974 335.8701 280.0403  1.00271022 32912","mean_motion":1.00271022,"eccentricity":0.0006974,"inclination_deg":0.0757,"raan_deg":94.2958,"arg_perigee_deg":335.8701,"mean_anomaly_deg":280.0403,"bstar":0,"rev_number":3291,"period_min":1436.107831832,"perigee_km":35757.403025903,"apogee_km":35816.214692387,"semimajor_km":42164.945859145,"source":"CELESTRAK","updated_at":"2026-05-25T13:38:14.045440Z"}}